Regional Weather Roundup
Issued by NWS San Angelo, TX

Home | Current Version | Previous Version | Text Only | Print | Product List | Glossary On
Versions: 1 2 3 4 5 6 7 8 9 10 11 12 13 14 15 16 17 18 19 20 21 22 23 24 25 26 27 28 29 30 31 32 33 34 35 36 37 38 39 40 41 42 43 44 45 46 47 48 49 50
000
ASUS44 KSJT 251710
RWRSJT
WEST CENTRAL TEXAS REGIONAL WEATHER ROUNDUP
NATIONAL WEATHER SERVICE SAN ANGELO TX
1100 AM CST THU DEC 25 2014

NOTE: "FAIR" INDICATES FEW OR NO CLOUDS BELOW 12,000 FEET WITH NO
SIGNIFICANT WEATHER AND/OR OBSTRUCTIONS TO VISIBILITY.

TXZ049-054-064>066-071>073-076>078-098-099-113-114-127-128-139-140-
154-155-168>170-251800
...LOCATIONS ACROSS WEST CENTRAL TEXAS...

CITY           SKY/WX    TMP DP  RH WIND       PRES   REMARKS
SAN ANGELO     MOSUNNY   55  24  30 S26G35    29.92S
ABILENE        MOSUNNY   51  23  33 S26G39    29.88F
DYESS AFB      MOSUNNY   51  26  37 S35G45    29.85R
JUNCTION       MOSUNNY   55  21  26 S14G30    30.00F
SWEETWATER     CLOUDY    53  22  29 S29G36    29.88S
BROWNWOOD      MOSUNNY   54  25  32 S18G25    29.98F
COLEMAN        MOSUNNY   53  28  37 S26G37    29.95F
SONORA         SUNNY     54  23  30 S25G33    30.01F
OZONA          FAIR      52  21  30 S17G29    29.99F
BRADY          SUNNY     54  23  30 S22       29.96F
$$

TEXAS PANHANDLE/OKLAHOMA PANHANDLE

CITY           SKY/WX    TMP DP  RH WIND       PRES   REMARKS
AMARILLO       MOSUNNY   54  12  18 S20G29    29.68R
BORGER         PTSUNNY   56  11  16 SW20G31   29.63R
CANADIAN       PTSUNNY   51  19  27 SW13G21   29.64R
DALHART        SUNNY     49  15  25 SW22      29.62R
DUMAS          PTSUNNY   49  13  23 SW28      29.62R
GUYMON         NOT AVBL
HEREFORD       MOSUNNY   51  15  23 SW21G29   29.71R
PAMPA          MOSUNNY   52  15  23 SW21G26   29.66R
PERRYTON       CLOUDY    50  19  29 SW21G28   29.58R
$$

SOUTHERN PANHANDLE/SOUTH PLAINS/ROLLING PLAINS

CITY           SKY/WX    TMP DP  RH WIND       PRES   REMARKS
LUBBOCK        CLOUDY    45  22  40 SW17G25   29.77F WCI  38
SNYDER         CLOUDY    47  23  39 S21G30    29.86R WCI  39
CHILDRESS      PTSUNNY   48  24  39 SW23G30   29.78S
SEMINOLE       CLOUDY    45  23  42 S14       29.83S WCI  39
$$

PERMIAN BASIN

CITY           SKY/WX    TMP DP  RH WIND       PRES   REMARKS
MIDLAND        CLOUDY    49  22  34 S22       29.85R
ODESSA         CLOUDY    48  18  30 S22G30    29.85R
WINK           CLOUDY    45  23  42 SE8       29.84R
$$

FAR WEST/SOUTHWEST MOUNTAINS/TRANS PECOS

CITY           SKY/WX    TMP DP  RH WIND       PRES   REMARKS
ALPINE         PTSUNNY   52  15  23 S20G26    29.98S
DRYDEN           N/A     51  23  33 CALM      29.95S
EL PASO        CLOUDY    44  12  27 SE9       29.85R WCI  39
FORT STOCKTON  CLOUDY    58  22  24 SW23G32   29.83F
GUADALUPE PASS NOT AVBL
MARFA          CLOUDY    45  14  29 S12       29.97S WCI  39
PECOS          CLOUDY    39  28  65 CALM      29.85R
$$

DALLAS/FORT WORTH METROPLEX

CITY           SKY/WX    TMP DP  RH WIND       PRES   REMARKS
DFW AIRPORT    PTSUNNY   54  27  35 S21       30.01S
FTW MEACHAM    MOSUNNY   54  29  38 S20G28    30.00S
DAL-EXECUTIVE  SUNNY     57  30  35 S10G22    30.03S
GRAND PRAIRIE  SUNNY     54  30  40 S23G33    30.05S
ADDISON        MOSUNNY   55  25  30 S13G25    30.04R
MESQUITE       SUNNY     54  30  40 MISG      30.06F
LANCASTER      SUNNY     52  30  43 S20G25    30.07F
$$

NORTH CENTRAL TEXAS

CITY           SKY/WX    TMP DP  RH WIND       PRES   REMARKS
SHRMAN/DENISON MOSUNNY   55  33  42 S23G32    30.00F
GAINESVILLE    MOSUNNY   51  29  41 S18       29.99F
BRIDGEPORT     PTSUNNY   53  30  41 S16G31    29.98F
DENTON         MOSUNNY   56  26  31 S24       30.00S
WAXAHACHIE     SUNNY     54  33  45 S17       30.05F
GRANBURY       MOSUNNY   57  28  31 S12G26    30.01F
$$

WESTERN NORTH TEXAS

CITY           SKY/WX    TMP DP  RH WIND       PRES   REMARKS
WICHITA FALLS  MOSUNNY   53  24  32 S30G39    29.88R
VERNON         PTSUNNY   52  18  26 S24G30    29.85R
BRECKENRIDGE   MOSUNNY   54  23  29 S24G37    29.91F HAZE
COMANCHE       MOSUNNY   54  28  35 S29G35    29.96F
$$

CENTRAL AND SOUTH CENTRAL TEXAS

CITY           SKY/WX    TMP DP  RH WIND       PRES   REMARKS
AUSTIN/BERGSTM MOSUNNY   54  32  43 S14G26    30.10S
WACO           SUNNY     56  28  34 S25G36    30.08S
HILLSBORO      SUNNY     54  33  45 S18       30.05F
TEMPLE         SUNNY     54  30  40 S20G26    30.06F
KILLEEN-GRAY   SUNNY     55  27  33 S20       30.05F
FORT HOOD      SUNNY     55  25  31 S18G28    30.05F
GEORGETOWN     SUNNY     55  27  33 S21G28    30.07
LAGO VISTA     FAIR      56  25  30 S17G26    30.08S
SAN MARCOS     SUNNY     54  30  40 S18G24    30.10S
NEW BRAUNFELS  SUNNY     57  32  38 S18G25    30.09F
RANDOLPH AFB   SUNNY     55  30  37 S21       30.10S
SAN ANTONIO    MOSUNNY   55  29  36 S12       30.10S
STINSON        SUNNY     57  28  33 S16G24    30.08F
PLEASANTON     NOT AVBL
LA GRANGE      SUNNY     58  39  50 S14G21    30.11R
GIDDINGS       SUNNY     55  35  47 S12G20    30.15S
$$

EAST TEXAS

CITY           SKY/WX    TMP DP  RH WIND       PRES   REMARKS
PARIS          SUNNY     54  32  43 S18       30.08F
CLARKSVILLE    NOT AVBL
TYLER          SUNNY     55  32  41 S14G26    30.11F
LONGVIEW       SUNNY     55  34  45 S16       30.14R
PALESTINE      SUNNY     56  33  42 SE9       30.13F
NACOGDOCHES      N/A    N/A N/A N/A MISG        N/A
$$

TEXAS HILL COUNTRY AND EDWARDS PLATEAU

CITY           SKY/WX    TMP DP  RH WIND       PRES   REMARKS
LLANO          SUNNY     57  27  30 S14       30.07F
HORSESHOE BAY  FAIR      57  22  26 S16G29    30.06S
KERRVILLE      SUNNY     54  17  23 S23G30    30.05F
FREDERICKSBRG  SUNNY     53  20  27 S18G31    30.04F
ROCKSPRINGS    SUNNY     54  23  30 S20G28    30.02F
HONDO          SUNNY     58  25  28 S16G25    30.10F
UVALDE         SUNNY     55  24  30 S10G17    30.07F
DEL RIO        SUNNY     52  28  39 SE15      30.00F
$$

SOUTHEAST TEXAS

CITY           SKY/WX    TMP DP  RH WIND       PRES   REMARKS
COLLEGE STN    SUNNY     55  34  45 S12       30.12F
CALDWELL       SUNNY     54  34  47 S20       30.14F
CROCKETT       SUNNY     57  39  51 S15G23    30.18F
BRENHAM        SUNNY     56  38  50 S13G18    30.13F
HUNTSVILLE     SUNNY     56  35  45 S14G21    30.15F
CONROE         MOSUNNY   54  38  54 S12       30.18F
HOUSTON BUSH   MOSUNNY   60  40  47 S12       30.18S
HOUSTON HOBBY  PTSUNNY   61  43  51 S15G25    30.17F
PERLAND        MOSUNNY   62  40  44 SE18G28   30.19F
WHARTON        SUNNY     61  46  58 S14       30.16F
$$

THE UPPER TEXAS COAST

CITY           SKY/WX    TMP DP  RH WIND       PRES   REMARKS
ORANGE         SUNNY     59  42  52 S12G17    30.24F
PORT ARTHUR    MOSUNNY   61  40  45 S13       30.22S
GALVESTON      MOSUNNY   61  44  53 S15       30.20F
ANGLETON       SUNNY     62  42  47 S22G28    30.18F
BAY CITY         N/A     64  45  50 S17       30.16F
$$

TEXAS COASTAL BEND, RIO GRANDE PLAINS DEEP SOUTH TEXAS

CITY           SKY/WX    TMP DP  RH WIND       PRES   REMARKS
VICTORIA       SUNNY     59  40  49 S13       30.15F
BEEVILLE       FAIR      59  35  40 S17       30.12F
ROCKPORT       MOSUNNY   61  45  55 S8        30.14F
PORT ARANSAS   PTSUNNY   63  47  56 S15       30.14F
PORT LAVACA    SUNNY     57  46  66 S7        30.15F
CORPUS CHRISTI PTSUNNY   61  38  42 S20       30.14F
KINGSVILLE NAS PTSUNNY   60  37  42 S12       30.14F
COTULLA        MOSUNNY   59  26  28 S15G25    30.08F
LAREDO         NOT AVBL
BROWNSVILLE    MOSUNNY   65  44  46 S13       30.16F
PORT ISABEL    PTSUNNY   64  43  46 S17       30.15F
HEBBRONVILLE   MOSUNNY   56  33  41 S9G21     30.11S
MCALLEN        CLOUDY    62  41  46 S17G23    30.13F
WESLACO        CLOUDY    62  40  43 S13G18    30.13F
FALFURRIAS     PTSUNNY   61  33  34 S17       30.13F
EDINBURG       CLOUDY    63  37  39 SE13      30.14F
$$


USA.gov is the U.S. government's official web portal to all federal, state and local government web resources and services.